BERGEN / FLESLAND current weather conditions

sailwx.info

Wind from 130 at 11 knots

Air temperature 10.0° C
Visibility: greater than 4.3 NM
Dewpoint 8.0° C
Present weather: Light rain drizzle.

Last reported at 2014-Oct-31 12:20 UTC.
Time now 2014-Oct-31 13:39 UTC

Location: N 60°17' E 005°14'.
View on Google Maps.

See reports from other nearby stations

  
Tides and Currents Weather Stations Pressure Air Temp Water Temp Dewpoint Dewpoint Depression Visibility Wind Speed Wind Dir Waves Ship Positions
date/time (UTC)wind fromknots sea level pressurealtimeterstation pressurevisibilityair tempwater tempwave heightnotes
2014-Oct-31 12:20 130 11 4.310.0 Light rain drizzle.
2014-Oct-31 11:50 140 8 4.9 9.0 Light rain drizzle.
2014-Oct-31 11:20 130 6 4.9 9.0 Light rain drizzle.
2014-Oct-31 10:50 130 8 5.4 9.0 Light rain drizzle.
2014-Oct-31 10:20 130 7 5.4 9.0 Light rain drizzle.
2014-Oct-31 09:50 130 9 5.4 9.0 Light rain.
2014-Oct-31 09:20 140 4 5.4 8.0 Light rain drizzle.
2014-Oct-31 08:50 150 2 3.8 7.0 Light rain drizzle.
2014-Oct-31 08:20 210 3 2.7 7.0 Light rain drizzle. Mist.
2014-Oct-31 07:50 5.4 7.0 Light rain drizzle.
2014-Oct-31 07:20 4.9 7.0 Light rain drizzle.
2014-Oct-31 06:50 120 4 4.9 7.0 Light rain drizzle.
2014-Oct-31 06:20 090 3 5.4 8.0 Light rain drizzle.
2014-Oct-31 05:50 100 4 5.4 8.0 Light rain.
2014-Oct-31 05:20 5.4 8.0 Light rain drizzle.
2014-Oct-31 04:50 130 3 5.4 8.0 Light drizzle.
2014-Oct-31 04:20 130 3 5.4 7.0 Light drizzle.
2014-Oct-31 03:50 5.4 8.0
2014-Oct-31 02:50 020 4 5.4 7.0
2014-Oct-31 01:50 040 3 5.4 7.0
2014-Oct-31 00:50 5.4 8.0
2014-Oct-30 23:50 100 5 5.4 7.0
2014-Oct-30 23:20 100 4 5.4 7.0
2014-Oct-30 22:50 120 3 5.4 6.0
2014-Oct-30 22:20 120 3 5.4 6.0
2014-Oct-30 21:50 120 3 5.4 7.0
2014-Oct-30 21:20 100 6 5.4 7.0
2014-Oct-30 20:50 110 5 5.4 6.0
2014-Oct-30 20:20 130 4 5.4 6.0
2014-Oct-30 19:50 110 4 5.4 7.0
2014-Oct-30 19:20 100 5 5.4 7.0
2014-Oct-30 18:50 090 6 5.4 7.0
2014-Oct-30 18:20 090 7 5.4 7.0
2014-Oct-30 17:50 090 6 5.4 6.0 Light drizzle.
2014-Oct-30 17:20 110 6 5.4 6.0 Light drizzle.
2014-Oct-30 16:50 110 4 5.4 6.0 Light rain.
2014-Oct-30 16:20 140 3 5.4 7.0 Light rain.
2014-Oct-30 15:50 100 6 5.4 7.0 Light rain showers.
2014-Oct-30 15:20 100 6 5.4 7.0 Showers in the vicinity.
2014-Oct-30 14:50 100 5 5.4 7.0 Light rain.
2014-Oct-30 14:20 120 6 5.4 8.0 Light rain showers.
2014-Oct-30 13:50 130 5 5.4 8.0
2014-Oct-30 13:20 130 7 5.4 8.0
2014-Oct-30 12:50 140 5 5.4 8.0
2014-Oct-30 12:20 140 6 5.4 8.0
2014-Oct-30 11:50 140 4 5.4 8.0
2014-Oct-30 11:20 130 4 5.4 8.0
2014-Oct-30 10:50 130 3 5.4 7.0
2014-Oct-30 10:20 140 5 5.4 8.0
2014-Oct-30 09:50 110 3 5.4 7.0
2014-Oct-30 09:20 5.4 6.0
2014-Oct-30 08:50 5.4 4.0
2014-Oct-30 08:20 090 3 5.4 4.0
2014-Oct-30 07:50 5.4 4.0
2014-Oct-30 07:20 090 4 5.4 4.0
2014-Oct-30 06:50 5.4 4.0
2014-Oct-30 06:20 5.4 4.0
2014-Oct-30 05:50 070 2 5.4 4.0
2014-Oct-30 05:20 060 1 5.4 3.0
2014-Oct-30 04:50 5.4 3.0
2014-Oct-30 04:20 140 3 5.4 3.0
2014-Oct-30 03:50 110 3 5.4 4.0
2014-Oct-30 02:50 100 3 5.4 4.0
2014-Oct-30 02:20 100 3 5.4 5.0
2014-Oct-30 00:50 5.4 4.0 Showers in the vicinity.
2014-Oct-29 23:50 110 3 5.4 5.0
2014-Oct-29 22:50 110 3 5.4 5.0
2014-Oct-29 22:20 080 4 5.4 5.0 Light rain showers.
2014-Oct-29 21:50 5.4 5.0 Light rain showers.
2014-Oct-29 21:20 050 5 5.4 5.0 Showers in the vicinity.
2014-Oct-29 20:50 130 3 5.4 5.0
2014-Oct-29 20:20 5.4 5.0 Showers in the vicinity.
2014-Oct-29 19:50 5.4 6.0 Rain showers.
2014-Oct-29 19:20 120 5 5.4 5.0 Showers in the vicinity.
2014-Oct-29 18:50 130 5 5.4 5.0 Light rain showers.
2014-Oct-29 18:20 130 4 5.4 5.0
2014-Oct-29 17:50 110 3 5.4 5.0
2014-Oct-29 17:20 130 4 5.4 5.0
2014-Oct-29 16:50 130 3 5.4 5.0 Showers in the vicinity.
2014-Oct-29 16:20 060 3 5.4 6.0 Showers in the vicinity.
2014-Oct-29 15:50 010 11 5.4 7.0 Showers in the vicinity.
2014-Oct-29 15:20 300 5 5.4 8.0 Showers in the vicinity.
2014-Oct-29 14:50 290 3 5.4 8.0 Showers in the vicinity.
2014-Oct-29 14:20 280 6 5.4 8.0 Showers in the vicinity.
2014-Oct-29 13:50 260 6 5.4 9.0 Showers in the vicinity.
2014-Oct-29 13:20 270 7 5.4 9.0